| time (UTC) | temp F | wind direction | speed MPH | gust MPH | rain 1hr in | rain 24hr in | rain mn in | humidity % | barometer mb |
| 20260504201544 | 58 | 5 | 6.0 | 13.0 | 0.00 | 0.00 | 0.00 | 41 | 1013.6 |
| 20260504201539 | 58 | 17 | 7.0 | 13.0 | 0.00 | 0.00 | 0.00 | 41 | 1010.5 |
| 20260504200050 | 59 | 336 | 6.0 | 15.0 | 0.00 | 0.00 | 0.00 | 41 | 1013.4 |
| 20260504200035 | 59 | 355 | 8.0 | 13.0 | 0.00 | 0.00 | 0.00 | 41 | 1010.2 |
| 20260504194549 | 58 | 13 | 4.0 | 12.0 | 0.00 | 0.00 | 0.00 | 42 | 1013.6 |
| 20260504194533 | 58 | 34 | 4.0 | 10.0 | 0.00 | 0.00 | 0.00 | 43 | 1010.3 |
| 20260504193045 | 58 | 329 | 4.0 | 18.0 | 0.00 | 0.00 | 0.00 | 42 | 1013.6 |
| 20260504193030 | 58 | 327 | 4.0 | 18.0 | 0.00 | 0.00 | 0.00 | 43 | 1010.3 |
| 20260504191602 | 58 | 352 | 5.0 | 13.0 | 0.00 | 0.00 | 0.00 | 43 | 1013.6 |
| 20260504191529 | 58 | 15 | 6.0 | 13.0 | 0.00 | 0.00 | 0.00 | 43 | 1010.3 |
| 20260504190058 | 59 | 329 | 7.0 | 14.0 | 0.00 | 0.00 | 0.00 | 41 | 1013.7 |
| 20260504190020 | 59 | 5 | 7.0 | 14.0 | 0.00 | 0.00 | 0.00 | 41 | 1010.2 |
| 20260504184547 | 58 | 25 | 3.0 | 15.0 | 0.00 | 0.00 | 0.00 | 42 | 1013.8 |
| 20260504184514 | 58 | 17 | 4.0 | 15.0 | 0.00 | 0.00 | 0.00 | 41 | 1010.4 |
| 20260504183047 | 57 | 13 | 5.0 | 13.0 | 0.00 | 0.00 | 0.00 | 42 | 1013.9 |
| 20260504183003 | 58 | 97 | 6.0 | 13.0 | 0.00 | 0.00 | 0.00 | 42 | 1010.4 |
| 20260504181600 | 57 | 28 | 5.0 | 27.0 | 0.00 | 0.00 | 0.00 | 42 | 1010.5 |
| 20260504181545 | 57 | 22 | 6.0 | 27.0 | 0.00 | 0.00 | 0.00 | 41 | 1014.0 |
| 20260504180047 | 57 | 341 | 4.0 | 12.0 | 0.00 | 0.00 | 0.00 | 43 | 1010.5 |
| 20260504180042 | 57 | 352 | 5.0 | 12.0 | 0.00 | 0.00 | 0.00 | 42 | 1013.9 |
| 20260504174544 | 56 | 63 | 3.0 | 16.0 | 0.00 | 0.00 | 0.00 | 43 | 1014.1 |
| 20260504174537 | 56 | 42 | 4.0 | 16.0 | 0.00 | 0.00 | 0.00 | 43 | 1010.7 |
| 20260504173047 | 56 | 340 | 1.0 | 14.0 | 0.00 | 0.00 | 0.00 | 44 | 1014.1 |
| 20260504173030 | 56 | 340 | 1.0 | 14.0 | 0.00 | 0.00 | 0.00 | 44 | 1010.6 |
| 20260504171547 | 56 | 109 | 3.0 | 12.0 | 0.00 | 0.00 | 0.00 | 44 | 1014.2 |
| 20260504171519 | 56 | 23 | 3.0 | 12.0 | 0.00 | 0.00 | 0.00 | 44 | 1010.7 |
| 20260504100104 | 50 | 76 | 4.0 | 10.0 | 0.00 | 0.00 | 0.00 | 48 | 1009.6 |
| 20260504081549 | 56 | 23 | 6.0 | 15.0 | 0.00 | 0.00 | 0.00 | 42 | 1011.6 |
| 20260504081522 | 56 | 11 | 5.0 | 14.0 | 0.00 | 0.00 | 0.00 | 42 | 1009.0 |
| 20260504060104 | 46 | 121 | 2.0 | 3.0 | 0.00 | 0.00 | 0.00 | 67 | 1008.2 |
| 20260504050022 | 47 | 121 | 1.0 | 2.0 | 0.00 | 0.00 | 0.00 | 66 | 1008.4 |
| 20260504044546 | 48 | 0 | 1.0 | 3.0 | 0.00 | 0.00 | 0.00 | 64 | 1011.1 |
| 20260504044516 | 48 | 121 | 1.0 | 3.0 | 0.00 | 0.00 | 0.00 | 65 | 1008.4 |
| 20260504043050 | 49 | 121 | 1.0 | 2.0 | 0.00 | 0.00 | 0.00 | 60 | 1011.0 |
| 20260504043012 | 49 | 121 | 1.0 | 2.0 | 0.00 | 0.00 | 0.00 | 60 | 1008.3 |
| 20260504041601 | 50 | 121 | 2.0 | 3.0 | 0.00 | 0.00 | 0.00 | 60 | 1008.4 |
| 20260504041546 | 50 | 121 | 2.0 | 3.0 | 0.00 | 0.00 | 0.00 | 59 | 1011.2 |
| 20260504041509 | 50 | 121 | 2.0 | 3.0 | 0.00 | 0.00 | 0.00 | 59 | 1008.4 |
| 20260504040054 | 53 | 106 | 2.0 | 3.0 | 0.00 | 0.00 | 0.00 | 52 | 1008.4 |
| 20260504040050 | 53 | 107 | 2.0 | 3.0 | 0.00 | 0.00 | 0.00 | 52 | 1011.2 |
| 20260504034550 | 53 | 112 | 2.0 | 3.0 | 0.00 | 0.00 | 0.00 | 52 | 1008.3 |
| 20260504034544 | 53 | 112 | 2.0 | 3.0 | 0.00 | 0.00 | 0.00 | 52 | 1011.0 |
| 20260504033047 | 55 | 103 | 2.0 | 4.0 | 0.00 | 0.00 | 0.00 | 50 | 1010.9 |
| 20260504033044 | 55 | 103 | 2.0 | 4.0 | 0.00 | 0.00 | 0.00 | 50 | 1008.2 |
| 20260504031549 | 56 | 111 | 2.0 | 3.0 | 0.00 | 0.00 | 0.00 | 50 | 1010.8 |
| 20260504031543 | 56 | 111 | 2.0 | 3.0 | 0.00 | 0.00 | 0.00 | 51 | 1008.0 |
| 20260504030049 | 59 | 117 | 1.0 | 3.0 | 0.00 | 0.00 | 0.00 | 43 | 1010.7 |
| 20260504030035 | 59 | 117 | 1.0 | 3.0 | 0.00 | 0.00 | 0.00 | 43 | 1007.9 |
| 20260504024600 | 63 | 22 | 0.0 | 3.0 | 0.00 | 0.00 | 0.00 | 35 | 1010.6 |
| 20260504024522 | 63 | 22 | 0.0 | 3.0 | 0.00 | 0.00 | 0.00 | 35 | 1007.8 |
| 20260504023045 | 64 | 5 | 0.0 | 3.0 | 0.00 | 0.00 | 0.00 | 32 | 1010.6 |
| 20260504023020 | 64 | 297 | 0.0 | 3.0 | 0.00 | 0.00 | 0.00 | 32 | 1007.8 |
| 20260504021546 | 66 | 298 | 0.0 | 4.0 | 0.00 | 0.00 | 0.00 | 29 | 1010.7 |
| 20260504021517 | 66 | 290 | 1.0 | 4.0 | 0.00 | 0.00 | 0.00 | 30 | 1007.8 |
| 20260504020058 | 67 | 292 | 2.0 | 6.0 | 0.00 | 0.00 | 0.00 | 28 | 1007.9 |
| 20260504020047 | 67 | 309 | 2.0 | 8.0 | 0.00 | 0.00 | 0.00 | 28 | 1010.7 |
| 20260504014551 | 68 | 285 | 2.0 | 6.0 | 0.00 | 0.00 | 0.00 | 27 | 1007.9 |
| 20260504014547 | 68 | 220 | 1.0 | 6.0 | 0.00 | 0.00 | 0.00 | 27 | 1010.7 |
| 20260504013046 | 69 | 318 | 3.0 | 8.0 | 0.00 | 0.00 | 0.00 | 24 | 1010.7 |
| 20260504013042 | 69 | 269 | 3.0 | 8.0 | 0.00 | 0.00 | 0.00 | 25 | 1008.0 |
| 20260504011546 | 70 | 313 | 2.0 | 8.0 | 0.00 | 0.00 | 0.00 | 24 | 1010.6 |
| 20260504011529 | 70 | 313 | 2.0 | 8.0 | 0.00 | 0.00 | 0.00 | 24 | 1008.0 |
| 20260504010045 | 70 | 329 | 3.0 | 9.0 | 0.00 | 0.00 | 0.00 | 21 | 1010.7 |
| 20260504010022 | 70 | 331 | 3.0 | 9.0 | 0.00 | 0.00 | 0.00 | 22 | 1008.0 |
| 20260504004546 | 71 | 277 | 2.0 | 9.0 | 0.00 | 0.00 | 0.00 | 22 | 1010.7 |
| 20260504004514 | 71 | 261 | 2.0 | 8.0 | 0.00 | 0.00 | 0.00 | 22 | 1008.1 |
| 20260504003051 | 71 | 310 | 4.0 | 12.0 | 0.00 | 0.00 | 0.00 | 22 | 1010.9 |
| 20260504003011 | 71 | 313 | 5.0 | 12.0 | 0.00 | 0.00 | 0.00 | 21 | 1008.3 |
| 20260504001549 | 71 | 300 | 2.0 | 7.0 | 0.00 | 0.00 | 0.00 | 20 | 1010.8 |
| 20260504001514 | 71 | 355 | 2.0 | 7.0 | 0.00 | 0.00 | 0.00 | 21 | 1008.2 |
| 20260504000112 | 71 | 262 | 2.0 | 10.0 | 0.00 | 0.00 | 0.00 | 20 | 1011.0 |
| 20260504000015 | 71 | 244 | 3.0 | 10.0 | 0.00 | 0.00 | 0.00 | 20 | 1008.4 |
| 20260503234600 | 71 | 26 | 4.0 | 10.0 | 0.00 | 0.00 | 0.00 | 20 | 1008.5 |
| 20260503234553 | 71 | 302 | 3.0 | 11.0 | 0.00 | 0.00 | 0.00 | 19 | 1011.1 |
| 20260503233052 | 72 | 347 | 4.0 | 9.0 | 0.00 | 0.00 | 0.00 | 19 | 1008.5 |
| 20260503233041 | 72 | 311 | 3.0 | 9.0 | 0.00 | 0.00 | 0.00 | 19 | 1011.2 |
| 20260503231546 | 71 | 350 | 4.0 | 12.0 | 0.00 | 0.00 | 0.00 | 20 | 1011.3 |
| 20260503231541 | 71 | 13 | 4.0 | 12.0 | 0.00 | 0.00 | 0.00 | 20 | 1008.7 |
| 20260503230049 | 71 | 219 | 5.0 | 11.0 | 0.00 | 0.00 | 0.00 | 21 | 1011.5 |
| 20260503230038 | 71 | 213 | 3.0 | 11.0 | 0.00 | 0.00 | 0.00 | 21 | 1008.8 |
| 20260503224546 | 71 | 300 | 3.0 | 10.0 | 0.00 | 0.00 | 0.00 | 18 | 1011.6 |
| 20260503224536 | 71 | 319 | 3.0 | 10.0 | 0.00 | 0.00 | 0.00 | 19 | 1009.1 |
| 20260503223044 | 72 | 236 | 3.0 | 13.0 | 0.00 | 0.00 | 0.00 | 20 | 1011.8 |
| 20260503223036 | 72 | 254 | 3.0 | 13.0 | 0.00 | 0.00 | 0.00 | 21 | 1009.4 |
| 20260503221551 | 71 | 279 | 2.0 | 9.0 | 0.00 | 0.00 | 0.00 | 22 | 1011.9 |
| 20260503221520 | 71 | 360 | 3.0 | 9.0 | 0.00 | 0.00 | 0.00 | 21 | 1009.6 |
| 20260503220046 | 71 | 274 | 4.0 | 10.0 | 0.00 | 0.00 | 0.00 | 19 | 1012.2 |
| 20260503220018 | 71 | 315 | 5.0 | 10.0 | 0.00 | 0.00 | 0.00 | 20 | 1009.9 |
| 20260503214545 | 71 | 344 | 3.0 | 9.0 | 0.00 | 0.00 | 0.00 | 21 | 1012.5 |
| 20260503214513 | 71 | 326 | 3.0 | 8.0 | 0.00 | 0.00 | 0.00 | 22 | 1010.2 |
| 20260503213110 | 70 | 325 | 1.0 | 7.0 | 0.00 | 0.00 | 0.00 | 22 | 1010.4 |
| 20260503213045 | 70 | 335 | 1.0 | 7.0 | 0.00 | 0.00 | 0.00 | 21 | 1012.7 |
| 20260503213001 | 70 | 297 | 1.0 | 7.0 | 0.00 | 0.00 | 0.00 | 23 | 1010.4 |
| 20260503211617 | 71 | 42 | 4.0 | 10.0 | 0.00 | 0.00 | 0.00 | 24 | 1010.7 |
| 20260503211547 | 70 | 337 | 4.0 | 11.0 | 0.00 | 0.00 | 0.00 | 26 | 1012.9 |
| 20260503210049 | 69 | 246 | 1.0 | 6.0 | 0.00 | 0.00 | 0.00 | 25 | 1011.0 |
| 20260503210044 | 69 | 269 | 1.0 | 6.0 | 0.00 | 0.00 | 0.00 | 25 | 1013.2 |
| 20260503204543 | 70 | 318 | 2.0 | 8.0 | 0.00 | 0.00 | 0.00 | 25 | 1013.4 |
| 20260503203100 | 69 | 347 | 4.0 | 11.0 | 0.00 | 0.00 | 0.00 | 25 | 1013.6 |
| 20260503203057 | 69 | 347 | 4.0 | 11.0 | 0.00 | 0.00 | 0.00 | 26 | 1011.6 |